TimeCST,TemperatureF,Dew PointF,Humidity,Sea Level PressureIn,VisibilityMPH,Wind Direction,Wind SpeedMPH,Gust SpeedMPH,PrecipitationIn,Events,Conditions,WindDirDegrees,DateUTC
12:53 AM,37.0,16.0,42,29.91,10.0,NW,10.4,-,N/A,,Clear,310,2014-01-13 06:53:00
1:53 AM,32.0,14.0,48,29.94,10.0,West,11.5,-,N/A,,Clear,280,2014-01-13 07:53:00
2:53 AM,30.0,14.0,51,29.96,10.0,West,10.4,-,N/A,,Clear,260,2014-01-13 08:53:00
3:53 AM,28.9,12.9,51,30.00,10.0,West,11.5,-,N/A,,Clear,280,2014-01-13 09:53:00
4:53 AM,28.0,12.9,53,30.02,10.0,West,15.0,-,N/A,,Clear,280,2014-01-13 10:53:00
5:53 AM,28.0,12.0,51,30.04,10.0,West,13.8,-,N/A,,Clear,270,2014-01-13 11:53:00
6:53 AM,28.0,10.9,49,30.05,10.0,West,9.2,-,N/A,,Clear,280,2014-01-13 12:53:00
7:53 AM,26.1,10.9,53,30.06,10.0,West,8.1,-,N/A,,Clear,270,2014-01-13 13:53:00
8:53 AM,30.0,10.9,45,30.08,10.0,West,12.7,-,N/A,,Clear,270,2014-01-13 14:53:00
9:53 AM,37.9,12.0,35,30.06,10.0,West,12.7,-,N/A,,Clear,280,2014-01-13 15:53:00
10:53 AM,46.9,10.0,22,30.05,10.0,West,12.7,-,N/A,,Clear,280,2014-01-13 16:53:00
11:53 AM,52.0,6.1,16,30.03,10.0,West,10.4,19.6,N/A,,Clear,280,2014-01-13 17:53:00
12:46 PM,53.1,5.0,14,30.02,1.2,WNW,9.2,-,N/A,,Haze,290,2014-01-13 18:46:00
12:53 PM,54.0,3.9,13,29.99,10.0,WNW,8.1,-,N/A,,Clear,300,2014-01-13 18:53:00
1:53 PM,55.9,3.9,12,29.97,10.0,West,15.0,-,N/A,,Clear,280,2014-01-13 19:53:00
2:53 PM,57.0,6.1,13,29.95,10.0,WNW,15.0,21.9,N/A,,Clear,300,2014-01-13 20:53:00
3:53 PM,57.0,7.0,14,29.94,10.0,WNW,9.2,-,N/A,,Clear,290,2014-01-13 21:53:00
4:53 PM,55.9,8.1,15,29.94,10.0,West,8.1,-,N/A,,Clear,260,2014-01-13 22:53:00
5:53 PM,48.9,9.0,20,29.95,10.0,SW,5.8,-,N/A,,Clear,220,2014-01-13 23:53:00
6:53 PM,37.9,9.0,30,30.00,10.0,SW,8.1,-,N/A,,Clear,220,2014-01-14 00:53:00
7:53 PM,37.0,8.1,30,29.99,10.0,SW,10.4,-,N/A,,Clear,230,2014-01-14 01:53:00
8:53 PM,37.0,9.0,31,29.98,10.0,SW,11.5,-,N/A,,Clear,220,2014-01-14 02:53:00
9:53 PM,37.9,10.0,32,29.96,10.0,WSW,11.5,-,N/A,,Clear,240,2014-01-14 03:53:00
10:53 PM,37.0,9.0,31,29.94,10.0,SW,9.2,-,N/A,,Clear,230,2014-01-14 04:53:00
11:53 PM,35.1,10.0,35,29.95,10.0,WSW,12.7,-,N/A,,Clear,250,2014-01-14 05:53:00